Location: Noordwijk
(52.2400°N, 4.4500°E)
Time: 21:41:24
(UTC+00:00)

CAS-4B - Pass Details

Date: 15 December 2022
Orbit: 515 x 531 km, 43.0° (Epoch: 04 February)

Event Time Altitude Azimuth Distance (km) Brightness Sun altitude
Exits shadow 04:30:02 16° 153° (SSE) 1,413 ? -28.3°
Drops below altitude 10° 04:31:23 10° 137° (SE) 1,770 ? -28.1°
Sets 04:34:00 0° 121° (ESE) 2,663 ? -27.7°
